Location: Doverdale
(52.2833°N, 2.2000°W)
Time: 11:57:21
(UTC+00:00)

Cosmos 1825 - Pass Details

Date: 29 October 2020
Orbit: 502 x 508 km, 82.5° (Epoch: 24 November)

Event Time Altitude Azimuth Distance (km) Brightness Sun altitude
Rises 18:43:27 0° 349° (N) 2,628 6.0 -18.6°
Reaches altitude 10° 18:45:35 10° 349° (N) 1,736 5.0 -19.0°
Maximum altitude 18:49:24 89° 75° (ENE) 515 2.0 -19.5°
Enters shadow 18:52:11 18° 170° (S) 1,316 4.1 -20.0°
